User: anonymous   Login
Location: Boiro
(42.6475°N, 8.8834°W)
Time: 06:35:03
(UTC+01:00)
Language:

POLYITAN 1 - Orbit

View from above orbital plane
View from above orbital plane
View from above satellite
View from above satellite

Ground track
Ground track

The orbit data is extracted from the following two-line orbital elements,

1 40042U 14033AJ  22026.37850485  .00001283  00000-0  13990-3 0  9992
2 40042  97.9602 323.8788 0015010 151.4908 208.7133 14.89676835412490
Epoch (UTC): 26 January 2022 09:05:02
Eccentricity: 0.0015010
inclination: 97.9602°
perigee height: 588 km
apogee height: 609 km
right ascension of ascending node: 323.8788°
argument of perigee: 151.4908°
revolutions per day: 14.89676835
mean anomaly at epoch: 208.7133°
orbit number at epoch: 41249

The dashed part of the orbit path shows where the satellite is in the earth's shadow,  

DLR